N603Q KMVY-KMVY

Flight info

Callsign N603Q
Flight time 0h 0m
Altitude VFR
Route
Aircraft BE58/L-VGD/C

Departure

Time 2026-04-26 20:17
Airport Martha's Vineyard Airport (KMVY)

Arrival

Time 2026-04-26 20:18
Airport Martha's Vineyard Airport (KMVY)
Time Latitude Longitude Altitude Speed Heading
2026-04-26 20:15 41.38801 -70.61539 49 ft 0 kts 117°
2026-04-26 20:16 41.38730 -70.61675 48 ft 24 kts 223°
2026-04-26 20:16 41.38625 -70.61852 49 ft 0 kts 304°
2026-04-26 20:16 41.38627 -70.61855 49 ft 10 kts 306°
2026-04-26 20:17 41.38829 -70.61755 52 ft 69 kts 40°
2026-04-26 20:17 41.39296 -70.61225 238 ft 86 kts 42°
2026-04-26 20:17 41.39830 -70.60776 442 ft 106 kts
2026-04-26 20:17 41.40276 -70.61098 704 ft 110 kts 316°
2026-04-26 20:18 41.40390 -70.61822 66 ft 0 kts 275°
2026-04-26 20:18 41.38865 -70.61434 51 ft 0 kts 220°
2026-04-26 20:18 41.38843 -70.61534 50 ft 35 kts 236°
2026-04-26 20:19 41.38647 -70.61764 49 ft 33 kts 220°
2026-04-26 20:19 41.38683 -70.61894 50 ft 25 kts 29°
2026-04-26 20:19 41.39045 -70.61501 54 ft 100 kts 39°
2026-04-26 20:19 41.39584 -70.60918 513 ft 94 kts 40°
2026-04-26 20:20 41.40179 -70.60879 849 ft 118 kts 320°
2026-04-26 20:20 41.40551 -70.61850 1207 ft 137 kts 261°
2026-04-26 20:20 41.39953 -70.62775 924 ft 137 kts 209°
2026-04-26 20:20 41.39140 -70.63449 689 ft 138 kts 217°
2026-04-26 20:21 41.38358 -70.63693 571 ft 118 kts 141°
2026-04-26 20:21 41.37984 -70.62852 641 ft 100 kts 76°
2026-04-26 20:21 41.38461 -70.62164 135 ft 108 kts 39°
2026-04-26 20:21 41.38926 -70.61639 52 ft 69 kts 40°
2026-04-26 20:22 41.39336 -70.61188 344 ft 77 kts 38°
2026-04-26 20:22 41.39876 -70.61015 413 ft 101 kts 348°
2026-04-26 20:22 41.40323 -70.61684 664 ft 106 kts 271°
2026-04-26 20:22 41.39991 -70.62579 765 ft 119 kts 218°
2026-04-26 20:23 41.39272 -70.63180 794 ft 123 kts 202°
2026-04-26 20:23 41.38528 -70.63433 723 ft 104 kts 159°
2026-04-26 20:23 41.38084 -70.62831 557 ft 95 kts 86°
2026-04-26 20:23 41.38442 -70.62198 207 ft 93 kts 44°
2026-04-26 20:24 41.38874 -70.61691 51 ft 70 kts 39°
2026-04-26 20:24 41.39273 -70.61255 183 ft 83 kts 35°
2026-04-26 20:24 41.39776 -70.60922 625 ft 82 kts 10°
2026-04-26 20:24 41.40281 -70.61406 855 ft 114 kts 287°
2026-04-26 20:25 41.40297 -70.62481 1157 ft 119 kts 250°
2026-04-26 20:25 41.39969 -70.63077 1161 ft 121 kts 225°
2026-04-26 20:25 41.39117 -70.64060 1242 ft 123 kts 208°
2026-04-26 20:25 41.38312 -70.64447 1090 ft 110 kts 159°
2026-04-26 20:26 41.37918 -70.63710 850 ft 114 kts 101°
2026-04-26 20:26 41.38035 -70.62830 480 ft 95 kts 51°
2026-04-26 20:26 41.38463 -70.62199 187 ft 87 kts 46°
2026-04-26 20:26 41.38905 -70.61667 57 ft 80 kts 41°
2026-04-26 20:27 41.39330 -70.61195 166 ft 85 kts 36°
2026-04-26 20:27 41.39813 -70.60838 566 ft 86 kts 26°
2026-04-26 20:27 41.40387 -70.60894 974 ft 89 kts 338°
2026-04-26 20:27 41.40640 -70.61774 1081 ft 109 kts 263°
2026-04-26 20:28 41.40095 -70.62441 969 ft 116 kts 183°
2026-04-26 20:28 41.39276 -70.62759 550 ft 123 kts 202°
2026-04-26 20:28 41.38571 -70.62926 638 ft 84 kts 150°
2026-04-26 20:28 41.38396 -70.62278 345 ft 89 kts 50°
2026-04-26 20:29 41.38857 -70.61727 66 ft 79 kts 40°
2026-04-26 20:29 41.39220 -70.61312 55 ft 74 kts 40°
2026-04-26 20:29 41.39710 -70.60787 374 ft 82 kts 34°
2026-04-26 20:29 41.40232 -70.60712 686 ft 99 kts 340°
2026-04-26 20:30 41.40451 -70.61597 824 ft 123 kts 244°
2026-04-26 20:30 41.39847 -70.62305 1088 ft 119 kts 207°
2026-04-26 20:30 41.39109 -70.62839 626 ft 122 kts 204°
2026-04-26 20:30 41.38386 -70.63095 625 ft 100 kts 142°
2026-04-26 20:31 41.38340 -70.62347 244 ft 105 kts 46°
2026-04-26 20:31 41.38817 -70.61770 65 ft 77 kts 41°
2026-04-26 20:31 41.39031 -70.61440 53 ft 22 kts 122°
2026-04-26 20:31 41.39010 -70.61388 53 ft 0 kts 113°
2026-04-26 20:32 41.38789 -70.61552 49 ft 0 kts 311°
2026-04-26 20:33 41.38782 -70.61614 49 ft 21 kts 215°
2026-04-26 20:33 41.38636 -70.61778 49 ft 24 kts 218°
2026-04-26 20:33 41.38622 -70.61851 49 ft 0 kts 297°
2026-04-26 20:33 41.38667 -70.61900 50 ft 24 kts
2026-04-26 20:34 41.38987 -70.61564 89 ft 89 kts 39°
2026-04-26 20:34 41.39484 -70.61039 576 ft 93 kts 38°
2026-04-26 20:34 41.39991 -70.60561 1200 ft 86 kts 26°
2026-04-26 20:34 41.40665 -70.60895 1212 ft 150 kts 298°
2026-04-26 20:35 41.40207 -70.62072 1313 ft 150 kts 202°
2026-04-26 20:35 41.39337 -70.62682 813 ft 131 kts 208°
2026-04-26 20:35 41.38630 -70.63229 563 ft 107 kts 183°
2026-04-26 20:35 41.38163 -70.62720 459 ft 85 kts 79°
2026-04-26 20:36 41.38560 -70.62067 142 ft 92 kts 42°
2026-04-26 20:36 41.38969 -70.61584 53 ft 72 kts 41°
2026-04-26 20:36 41.39386 -70.61103 360 ft 91 kts 40°
2026-04-26 20:36 41.40044 -70.60638 682 ft 113 kts 357°
2026-04-26 20:37 41.40657 -70.61304 1238 ft 122 kts 277°
2026-04-26 20:37 41.40043 -70.62285 955 ft 179 kts 204°
2026-04-26 20:37 41.38894 -70.62974 535 ft 155 kts 201°
2026-04-26 20:37 41.38140 -70.63053 562 ft 93 kts 122°
2026-04-26 20:38 41.38260 -70.62383 305 ft 91 kts 36°
2026-04-26 20:38 41.38734 -70.61851 71 ft 82 kts 41°
2026-04-26 20:38 41.39166 -70.61360 211 ft 83 kts 39°
2026-04-26 20:38 41.39685 -70.60765 539 ft 104 kts 43°
2026-04-26 20:39 41.40216 -70.60703 637 ft 105 kts 320°
2026-04-26 20:39 41.40184 -70.61720 792 ft 143 kts 228°
2026-04-26 20:39 41.39404 -70.62551 794 ft 142 kts 213°
2026-04-26 20:39 41.38708 -70.63327 941 ft 117 kts 221°
2026-04-26 20:40 41.38048 -70.63853 1140 ft 97 kts 167°
2026-04-26 20:40 41.37720 -70.63239 677 ft 95 kts 72°
2026-04-26 20:40 41.38114 -70.62570 266 ft 98 kts 41°
2026-04-26 20:40 41.38591 -70.62013 138 ft 93 kts 39°
2026-04-26 20:41 41.39016 -70.61535 54 ft 81 kts 40°
2026-04-26 20:41 41.39445 -70.61056 441 ft 86 kts 30°
2026-04-26 20:41 41.40032 -70.61157 812 ft 101 kts 312°
2026-04-26 20:41 41.39656 -70.61916 614 ft 141 kts 201°
2026-04-26 20:42 41.38938 -70.62544 384 ft 111 kts 211°
2026-04-26 20:42 41.38183 -70.62982 433 ft 101 kts 164°
2026-04-26 20:42 41.38054 -70.62405 338 ft 92 kts 26°
2026-04-26 20:42 41.38648 -70.61942 91 ft 94 kts 39°
2026-04-26 20:43 41.39074 -70.61462 54 ft 63 kts 40°
2026-04-26 20:43 41.39223 -70.61294 55 ft 20 kts 41°
2026-04-26 20:43 41.39552 -70.60921 195 ft 79 kts 44°
2026-04-26 20:43 41.39947 -70.60424 604 ft 82 kts 41°
2026-04-26 20:44 41.40374 -70.60653 909 ft 104 kts 278°
2026-04-26 20:44 41.39961 -70.61623 781 ft 148 kts 220°
2026-04-26 20:44 41.39079 -70.62442 609 ft 160 kts 208°
2026-04-26 20:44 41.38251 -70.63025 428 ft 103 kts 171°
2026-04-26 20:45 41.38170 -70.62490 332 ft 93 kts 38°
2026-04-26 20:45 41.38643 -70.61966 88 ft 80 kts 41°
2026-04-26 20:45 41.39033 -70.61513 54 ft 65 kts 39°
2026-04-26 20:45 41.39433 -70.61057 182 ft 86 kts 41°
2026-04-26 20:46 41.39848 -70.61244 492 ft 109 kts 301°
2026-04-26 20:46 41.40007 -70.62129 320 ft 96 kts 216°
2026-04-26 20:46 41.39583 -70.61668 153 ft 95 kts 120°
2026-04-26 20:46 41.39077 -70.61885 500 ft 100 kts 233°
2026-04-26 20:47 41.38638 -70.62652 381 ft 93 kts 217°
2026-04-26 20:47 41.38298 -70.62630 535 ft 74 kts 97°
2026-04-26 20:47 41.38775 -70.61809 75 ft 89 kts 38°
2026-04-26 20:47 41.39119 -70.61416 53 ft 42 kts 43°
2026-04-26 20:48 41.39280 -70.61203 56 ft 20 kts 108°
2026-04-26 20:48 41.39174 -70.61169 54 ft 18 kts 227°
2026-04-26 20:48 41.39166 -70.61179 53 ft 0 kts 220°